GW2011 Weather Reports


time (UTC)temp
C
wind
direction
speed
KPH
gust
KPH
rain 1hr
cm
rain 24hr
cm
rain mn
cm
humidity
%
barometer
mb
20260504100514 13 273 12.9 25.7 0.00 0.00 0.00 50 992.3
20260504081534 13 246 14.5 20.9 0.00 0.00 0.00 45 993.0
20260504081017 13 238 12.9 20.9 0.00 0.00 0.00 45 993.0
20260504080515 13 244 12.9 20.9 0.00 0.00 0.00 45 993.2
20260504050516 13 243 11.3 17.7 0.00 0.00 0.00 46 996.7
20260504045514 13 232 12.9 19.3 0.00 0.00 0.00 46 997.0
20260504045013 13 254 9.7 16.1 0.00 0.00 0.00 46 997.1
20260504044533 13 247 9.7 16.1 0.00 0.00 0.00 46 997.2
20260504044015 13 252 6.4 14.5 0.00 0.00 0.00 48 997.3
20260504043515 13 242 8.0 14.5 0.00 0.00 0.00 49 997.4
20260504043043 13 238 6.4 12.9 0.00 0.00 0.00 50 997.5
20260504042515 12 223 4.8 11.3 0.00 0.00 0.00 51 997.6
20260504042012 12 232 3.2 8.0 0.00 0.00 0.00 53 997.6
20260504041536 12 246 1.6 6.4 0.00 0.00 0.00 55 998.0
20260504041014 11 244 1.6 4.8 0.00 0.00 0.00 55 998.1
20260504040512 11 267 0.0 1.6 0.00 0.00 0.00 55 998.1
20260504040032 11 267 0.0 0.0 0.00 0.00 0.00 56 998.2
20260504035511 11 0 0.0 0.0 0.00 0.00 0.00 57 998.5
20260504035014 11 0 0.0 3.2 0.00 0.00 0.00 59 998.6
20260504034534 11 0 0.0 3.2 0.00 0.00 0.00 53 998.7
20260504034018 10 267 1.6 3.2 0.00 0.00 0.00 54 998.8
20260504033513 10 0 0.0 3.2 0.00 0.00 0.00 57 998.9
20260504033034 10 0 0.0 3.2 0.00 0.00 0.00 61 999.0
20260504032514 10 0 0.0 3.2 0.00 0.00 0.00 72 999.0
20260504032015 10 266 0.0 3.2 0.00 0.00 0.00 70 999.3
20260504031535 10 0 0.0 3.2 0.00 0.00 0.00 67 999.5
20260504031018 11 267 0.0 1.6 0.00 0.00 0.00 60 999.4
20260504030514 11 0 0.0 1.6 0.00 0.00 0.00 65 999.5
20260504030034 11 0 0.0 0.0 0.00 0.00 0.00 63 999.5
20260504025514 11 0 0.0 3.2 0.00 0.00 0.00 65 999.7
20260504025014 12 0 0.0 3.2 0.00 0.00 0.00 63 999.8
20260504024535 12 0 0.0 1.6 0.00 0.00 0.00 62 999.9
20260504024011 12 0 0.0 1.6 0.00 0.00 0.00 60 999.8
20260504023511 12 0 0.0 1.6 0.00 0.00 0.00 48 999.9
20260504023030 13 0 0.0 3.2 0.00 0.00 0.00 55 1000.0
20260504022511 13 0 0.0 3.2 0.00 0.00 0.00 56 1000.0
20260504022013 14 0 0.0 1.6 0.00 0.00 0.00 50 1000.1
20260504021533 14 0 0.0 1.6 0.00 0.00 0.00 51 1000.2
20260504021011 15 0 0.0 3.2 0.00 0.00 0.00 48 1000.3
20260504020512 15 0 0.0 3.2 0.00 0.00 0.00 46 1000.3
20260504020032 16 267 0.0 3.2 0.00 0.00 0.00 37 1000.4
20260504015512 16 267 0.0 3.2 0.00 0.00 0.00 36 1000.5
20260504015012 16 267 1.6 3.2 0.00 0.00 0.00 36 1000.3
20260504014538 16 267 1.6 4.8 0.00 0.00 0.00 37 1000.3
20260504014014 16 267 1.6 4.8 0.00 0.00 0.00 36 1000.5
20260504013511 16 267 1.6 4.8 0.00 0.00 0.00 37 1000.5
20260504013033 16 272 3.2 9.7 0.00 0.00 0.00 35 1000.5
20260504012514 17 265 3.2 9.7 0.00 0.00 0.00 36 1000.6
20260504012014 17 265 3.2 9.7 0.00 0.00 0.00 39 1000.5
20260504011537 17 257 4.8 9.7 0.00 0.00 0.00 37 1000.7
20260504011012 17 263 4.8 9.7 0.00 0.00 0.00 36 1000.7
20260504010515 17 273 4.8 9.7 0.00 0.00 0.00 36 1000.7
20260504010038 17 269 3.2 11.3 0.00 0.00 0.00 34 1000.7
20260504005514 18 268 4.8 11.3 0.00 0.00 0.00 34 1000.8
20260504005018 18 270 3.2 11.3 0.00 0.00 0.00 34 1000.8
20260504004534 18 264 4.8 11.3 0.00 0.00 0.00 33 1001.0
20260504004017 18 275 4.8 12.9 0.00 0.00 0.00 34 1000.9
20260504003515 18 244 6.4 16.1 0.00 0.00 0.00 32 1001.0
20260504003037 18 259 6.4 16.1 0.00 0.00 0.00 34 1000.9
20260504002514 18 267 4.8 16.1 0.00 0.00 0.00 35 1001.0
20260504002016 18 271 6.4 14.5 0.00 0.00 0.00 36 1001.0
20260504001540 18 272 8.0 14.5 0.00 0.00 0.00 33 1001.1
20260504001014 18 275 4.8 12.9 0.00 0.00 0.00 34 1001.0
20260504000514 18 265 6.4 12.9 0.00 0.00 0.00 34 1001.1
20260504000032 18 262 6.4 12.9 0.00 0.00 0.00 36 1001.2
20260503235516 18 248 4.8 12.9 0.00 0.00 0.00 34 1001.2
20260503235014 18 261 4.8 9.7 0.00 0.00 0.00 37 1001.1
20260503234532 18 275 3.2 11.3 0.00 0.00 0.00 34 1001.2
20260503234015 18 261 4.8 11.3 0.00 0.00 0.00 31 1001.4
20260503233515 18 306 4.8 12.9 0.00 0.00 0.00 30 1001.4
20260503233036 18 288 4.8 14.5 0.00 0.00 0.00 31 1001.4
20260503232516 18 306 6.4 20.9 0.00 0.00 0.00 33 1001.4
20260503232014 18 265 9.7 20.9 0.00 0.00 0.00 35 1001.5
20260503231534 18 258 8.0 14.5 0.00 0.00 0.00 36 1001.5
20260503231017 18 264 8.0 17.7 0.00 0.00 0.00 34 1001.5
20260503230517 18 265 6.4 17.7 0.00 0.00 0.00 32 1001.6
20260503230034 18 267 8.0 16.1 0.00 0.00 0.00 35 1001.7
20260503225517 18 252 9.7 16.1 0.00 0.00 0.00 32 1001.7
20260503225018 18 265 9.7 16.1 0.00 0.00 0.00 34 1001.6
20260503224537 19 255 6.4 16.1 0.00 0.00 0.00 31 1001.7
20260503224015 19 255 8.0 20.9 0.00 0.00 0.00 32 1001.8
20260503223517 19 313 8.0 22.5 0.00 0.00 0.00 30 1001.7
20260503223033 19 257 11.3 22.5 0.00 0.00 0.00 31 1002.0
20260503222515 19 263 9.7 19.3 0.00 0.00 0.00 30 1002.0
20260503222015 19 293 8.0 16.1 0.00 0.00 0.00 31 1002.1
20260503221533 19 254 8.0 17.7 0.00 0.00 0.00 29 1002.1
20260503221014 20 265 6.4 17.7 0.00 0.00 0.00 29 1002.1
20260503220514 20 288 4.8 14.5 0.00 0.00 0.00 29 1002.3
20260503220032 20 256 3.2 14.5 0.00 0.00 0.00 29 1002.4
20260503215511 20 265 4.8 17.7 0.00 0.03 0.00 27 1002.4
20260503215013 20 301 4.8 17.7 0.00 0.03 0.00 29 1002.4
20260503214531 20 270 4.8 11.3 0.00 0.03 0.00 31 1002.4
20260503214012 20 286 4.8 12.9 0.00 0.03 0.00 29 1002.6
20260503213513 20 352 4.8 16.1 0.00 0.03 0.00 30 1002.5
20260503213033 19 290 6.4 17.7 0.00 0.03 0.00 30 1002.7
20260503212512 19 269 6.4 17.7 0.00 0.03 0.00 34 1002.5
20260503212013 19 255 11.3 22.5 0.00 0.03 0.00 32 1002.7
20260503211532 19 355 8.0 22.5 0.00 0.03 0.00 32 1002.6
20260503211014 19 251 4.8 19.3 0.00 0.03 0.00 28 1002.6
20260503210514 19 288 6.4 19.3 0.00 0.03 0.00 32 1002.8
20260503210034 19 268 9.7 16.1 0.00 0.03 0.00 31 1002.7
20260503205514 19 225 1.6 14.5 0.00 0.03 0.00 32 1002.8
20260503205015 19 275 4.8 24.1 0.00 0.03 0.00 31 1003.0
20260503204533 18 246 11.3 24.1 0.00 0.03 0.00 33 1003.0
20260503204017 19 272 6.4 17.7 0.00 0.03 0.00 32 1003.0
20260503203514 19 297 9.7 17.7 0.00 0.03 0.00 30 1003.2
20260503203032 19 346 6.4 22.5 0.00 0.03 0.00 30 1003.2
20260503202513 19 265 8.0 22.5 0.00 0.03 0.00 29 1003.4
20260503202016 19 286 3.2 17.7 0.00 0.03 0.00 31 1003.4
20260503201532 18 296 9.7 17.7 0.00 0.03 0.00 33 1003.5
20260503201011 19 304 6.4 14.5 0.00 0.03 0.00 30 1003.5
20260503200514 19 248 6.4 14.5 0.00 0.03 0.00 33 1003.6
20260503200032 19 252 4.8 17.7 0.00 0.03 0.00 32 1003.6
20260503195513 19 277 11.3 17.7 0.00 0.03 0.00 30 1003.6
20260503195014 19 258 4.8 16.1 0.00 0.03 0.00 31 1003.8
20260503194533 20 342 3.2 16.1 0.00 0.03 0.00 29 1003.7
20260503194013 19 249 3.2 9.7 0.00 0.03 0.00 30 1003.9
20260503193511 19 291 3.2 16.1 0.00 0.03 0.00 29 1003.9
20260503193037 19 30 9.7 16.1 0.00 0.03 0.00 31 1003.9
20260503192514 19 273 3.2 14.5 0.00 0.03 0.00 31 1003.9
20260503192014 19 312 8.0 14.5 0.00 0.03 0.00 34 1003.9
20260503191538 20 275 4.8 12.9 0.00 0.03 0.00 30 1004.0
20260503191016 19 277 1.6 12.9 0.00 0.03 0.00 31 1004.0
20260503190515 19 348 4.8 12.9 0.00 0.03 0.00 30 1004.0
20260503190032 19 294 4.8 14.5 0.00 0.03 0.00 32 1004.3
20260503185515 19 262 8.0 14.5 0.00 0.03 0.00 30 1004.4
20260503185016 19 292 4.8 12.9 0.00 0.03 0.00 29 1004.3
20260503184534 19 336 3.2 12.9 0.00 0.03 0.00 30 1004.4
20260503184016 19 346 1.6 11.3 0.00 0.03 0.00 33 1004.4
20260503183514 19 292 4.8 12.9 0.00 0.03 0.00 30 1004.7
20260503183034 19 343 4.8 16.1 0.00 0.03 0.00 28 1004.7
20260503182517 19 55 4.8 16.1 0.00 0.03 0.00 30 1004.8
20260503182013 19 314 3.2 14.5 0.00 0.03 0.00 30 1004.7
20260503181533 19 46 3.2 14.5 0.00 0.03 0.00 32 1004.8
20260503181015 18 39 3.2 11.3 0.00 0.03 0.00 33 1004.9
20260503180518 18 313 3.2 12.9 0.00 0.03 0.00 30 1004.9
20260503180043 18 278 3.2 14.5 0.00 0.03 0.00 30 1004.9
20260503175515 18 46 3.2 14.5 0.00 0.03 0.00 30 1004.9
20260503175013 18 297 6.4 14.5 0.00 0.03 0.00 28 1004.9
20260503174535 18 337 1.6 11.3 0.00 0.03 0.00 34 1004.7
20260503174015 18 300 3.2 11.3 0.00 0.03 0.00 34 1004.9
20260503173517 18 13 1.6 11.3 0.00 0.03 0.00 33 1005.0
20260503173037 18 323 3.2 11.3 0.00 0.03 0.00 33 1005.1
20260503172514 18 339 3.2 9.7 0.00 0.03 0.00 34 1005.0
20260503172016 18 300 4.8 9.7 0.00 0.03 0.00 35 1005.1
20260503171532 18 65 1.6 9.7 0.00 0.03 0.00 38 1005.1
20260503171015 18 189 3.2 11.3 0.00 0.03 0.00 35 1005.3
20260503170516 18 340 3.2 11.3 0.00 0.03 0.00 37 1005.1
20260503150515 16 32 3.2 8.0 0.00 0.03 0.00 47 1005.3
20260503131019 10 321 0.0 4.8 0.00 0.03 0.00 63 1004.7
20260503130519 10 311 0.0 4.8 0.00 0.03 0.00 64 1004.6
20260503110516 8 308 1.6 6.4 0.00 0.03 0.00 67 1002.5